,,PA_Meas_PMT16A,,PR_Meas_QMR101_102,,RH_Meas_QMH101,,SR_Meas_QMS101,,TA_Meas_QMH101,,GenWind,,GenWind,
time,status,PA,status,PR,status,RH,status,SR,status,TA,status,DirAvg,status,SpdAvg,
2013-10-03, 06:40:04,VALID,919.439,VALID,0,VALID,97.2367,VALID,90.4654,VALID,18.6708,VALID,136,VALID,0,
2013-10-03, 06:41:04,VALID,919.46,VALID,0,VALID,97.2443,VALID,90.358,VALID,18.7683,VALID,136,VALID,0,
2013-10-03, 06:42:04,VALID,919.466,VALID,0,VALID,97.2367,VALID,98.3087,VALID,18.7878,VALID,136,VALID,0,
2013-10-03, 06:43:04,VALID,919.457,VALID,0,VALID,97.2214,VALID,104.11,VALID,18.7488,VALID,136,VALID,0,
2013-10-03, 06:44:04,VALID,919.466,VALID,0,VALID,97.2214,VALID,107.656,VALID,18.7878,VALID,136,VALID,0,
2013-10-03, 06:45:04,VALID,919.495,VALID,0,VALID,97.2214,VALID,110.235,VALID,18.8853,VALID,136,VALID,0,
2013-10-03, 06:46:04,VALID,919.451,VALID,0,VALID,97.2138,VALID,112.276,VALID,18.9647,VALID,136,VALID,0,
2013-10-03, 06:47:04,VALID,919.504,VALID,0,VALID,97.2062,VALID,114.747,VALID,18.9438,VALID,136,VALID,0,
2013-10-03, 06:48:04,VALID,919.494,VALID,0,VALID,97.1986,VALID,118.078,VALID,18.9243,VALID,136,VALID,0,
2013-10-03, 06:49:04,VALID,919.531,VALID,0,VALID,97.1833,VALID,122.268,VALID,18.9229,VALID,133,VALID,0,
2013-10-03, 06:50:04,VALID,919.524,VALID,0,VALID,97.1833,VALID,125.276,VALID,18.9828,VALID,127,VALID,0,
2013-10-03, 06:51:04,VALID,919.522,VALID,0,VALID,97.1833,VALID,128.5,VALID,19.0413,VALID,127,VALID,0,
2013-10-03, 06:52:04,VALID,919.545,VALID,0,VALID,97.1604,VALID,134.731,VALID,19.1193,VALID,127,VALID,0,
2013-10-03, 06:53:04,VALID,919.569,VALID,0,VALID,97.1528,VALID,139.029,VALID,19.1178,VALID,127,VALID,0,
2013-10-03, 06:54:04,VALID,919.58,VALID,0,VALID,97.1376,VALID,140.103,VALID,19.1792,VALID,127,VALID,0,
2013-10-03, 06:55:04,VALID,919.565,VALID,0,VALID,97.1223,VALID,144.938,VALID,19.2558,VALID,127,VALID,0,
2013-10-03, 06:56:04,VALID,919.596,VALID,0,VALID,97.0766,VALID,151.922,VALID,19.3518,VALID,127,VALID,0,
2013-10-03, 06:57:04,VALID,919.639,VALID,0,VALID,97.0842,VALID,156.972,VALID,19.5093,VALID,127,VALID,0,
2013-10-03, 06:58:04,VALID,919.654,VALID,0,VALID,97.0613,VALID,162.344,VALID,19.5858,VALID,131,VALID,0,
2013-10-03, 06:59:04,VALID,919.687,VALID,0,VALID,97.0537,VALID,170.509,VALID,19.6653,VALID,141,VALID,0,
2013-10-03, 07:00:04,VALID,919.666,VALID,0,VALID,97.008,VALID,174.592,VALID,19.6848,VALID,151,VALID,0,
2013-10-03, 07:01:04,VALID,919.68,VALID,0,VALID,96.9927,VALID,176.956,VALID,19.7628,VALID,130,VALID,0,
2013-10-03, 07:02:04,VALID,919.688,VALID,0,VALID,96.9546,VALID,176.848,VALID,19.8603,VALID,107,VALID,0,
2013-10-03, 07:03:04,VALID,919.685,VALID,0,VALID,96.9089,VALID,175.774,VALID,19.8408,VALID,107,VALID,0,
2013-10-03, 07:04:04,VALID,919.683,VALID,0,VALID,96.8555,VALID,178.03,VALID,19.9578,VALID,107,VALID,0,
2013-10-03, 07:05:04,VALID,919.7,VALID,0,VALID,96.7869,VALID,162.881,VALID,20.1123,VALID,107,VALID,0,
2013-10-03, 07:06:04,VALID,919.73,VALID,0,VALID,96.7259,VALID,108.516,VALID,20.3074,VALID,107,VALID,0,
2013-10-03, 07:07:04,VALID,919.733,VALID,0,VALID,96.6497,VALID,120.764,VALID,20.4244,VALID,107,VALID,0,
2013-10-03, 07:08:04,VALID,919.758,VALID,0,VALID,96.5429,VALID,180.179,VALID,20.5219,VALID,107,VALID,0,
2013-10-03, 07:09:04,VALID,919.781,VALID,0,VALID,96.3829,VALID,188.989,VALID,20.6015,VALID,107,VALID,0,
2013-10-03, 07:10:04,VALID,919.751,VALID,0,VALID,96.1541,VALID,185.229,VALID,20.6585,VALID,107,VALID,0,
2013-10-03, 07:11:04,VALID,919.771,VALID,0,VALID,95.7654,VALID,186.625,VALID,20.639,VALID,107,VALID,0,
2013-10-03, 07:12:04,VALID,919.782,VALID,0,VALID,95.3384,VALID,83.3743,VALID,20.6585,VALID,99,VALID,0,
2013-10-03, 07:13:04,VALID,919.847,VALID,0,VALID,94.4846,VALID,195.543,VALID,20.5789,VALID,50,VALID,0,
2013-10-03, 07:14:04,VALID,919.841,VALID,0,VALID,93.4173,VALID,197.155,VALID,20.5399,VALID,50,VALID,0,
2013-10-03, 07:15:04,VALID,919.849,VALID,0,VALID,92.5178,VALID,200.163,VALID,20.5414,VALID,50,VALID,0,
2013-10-03, 07:16:04,VALID,919.856,VALID,0,VALID,91.9994,VALID,203.708,VALID,20.639,VALID,50,VALID,0,
2013-10-03, 07:17:04,VALID,919.885,VALID,0,VALID,91.1151,VALID,207.899,VALID,20.7755,VALID,50,VALID,0,
2013-10-03, 07:18:04,VALID,919.903,VALID,0,VALID,88.9958,VALID,212.089,VALID,20.9542,VALID,50,VALID,0,
2013-10-03, 07:19:04,VALID,919.907,VALID,0,VALID,87.7379,VALID,215.42,VALID,21.0275,VALID,50,VALID,0,
2013-10-03, 07:20:04,VALID,919.901,VALID,0,VALID,86.8993,VALID,219.932,VALID,21.0649,VALID,50,VALID,0,
2013-10-03, 07:21:04,VALID,919.923,VALID,0,VALID,87.0594,VALID,225.519,VALID,21.1461,VALID,50,VALID,0,
2013-10-03, 07:22:04,VALID,919.926,VALID,0,VALID,86.9603,VALID,230.354,VALID,21.1461,VALID,335,VALID,0,
2013-10-03, 07:23:04,VALID,919.954,VALID,0,VALID,86.1141,VALID,234.759,VALID,21.0454,VALID,23,VALID,0,
2013-10-03, 07:24:04,VALID,919.975,VALID,0,VALID,86.8231,VALID,238.519,VALID,20.9901,VALID,303,VALID,0,
2013-10-03, 07:25:04,VALID,919.973,VALID,0,VALID,87.2119,VALID,241.528,VALID,20.7934,VALID,303,VALID,0,
2013-10-03, 07:26:04,VALID,919.984,VALID,0,VALID,88.0352,VALID,245.718,VALID,20.7544,VALID,304,VALID,0,
2013-10-03, 07:27:04,VALID,920.017,VALID,0,VALID,87.9895,VALID,249.371,VALID,20.756,VALID,308,VALID,0,
2013-10-03, 07:28:04,VALID,920.015,VALID,0,VALID,88.1267,VALID,253.669,VALID,20.7544,VALID,311,VALID,0,
2013-10-03, 07:29:04,VALID,920.019,VALID,0,VALID,87.6922,VALID,251.09,VALID,20.8324,VALID,6,VALID,0,
2013-10-03, 07:30:04,VALID,920.017,VALID,0,VALID,85.5347,VALID,265.487,VALID,20.969,VALID,16,VALID,0,
2013-10-03, 07:31:04,VALID,920.007,VALID,0,VALID,86.0303,VALID,276.768,VALID,21.0876,VALID,24,VALID,0,
2013-10-03, 07:32:04,VALID,920.012,VALID,0,VALID,85.2374,VALID,198.121,VALID,21.2047,VALID,3,VALID,0,
2013-10-03, 07:33:04,VALID,920.044,VALID,0,VALID,86.3885,VALID,264.52,VALID,21.2047,VALID,11,VALID,0,
2013-10-03, 07:34:04,VALID,920.05,VALID,0,VALID,86.3199,VALID,275.587,VALID,21.2632,VALID,36,VALID,0,
2013-10-03, 07:35:04,VALID,920.014,VALID,0,VALID,83.9186,VALID,279.454,VALID,21.3429,VALID,39,VALID,0,
2013-10-03, 07:36:04,VALID,919.998,VALID,0,VALID,84.658,VALID,277.521,VALID,21.3022,VALID,54,VALID,0,
2013-10-03, 07:37:04,VALID,919.979,VALID,0,VALID,85.0545,VALID,278.273,VALID,21.2827,VALID,37,VALID,0,
2013-10-03, 07:38:04,VALID,919.962,VALID,0,VALID,85.3899,VALID,283.107,VALID,21.2421,VALID,28,VALID,0,
2013-10-03, 07:39:04,VALID,919.988,VALID,0,VALID,85.6872,VALID,266.024,VALID,21.2405,VALID,359,VALID,0,
2013-10-03, 07:40:04,VALID,919.976,VALID,0,VALID,84.3302,VALID,259.47,VALID,21.2421,VALID,24,VALID,0,
2013-10-03, 07:41:04,VALID,919.975,VALID,0,VALID,85.2374,VALID,247.544,VALID,21.2421,VALID,18,VALID,0,
2013-10-03, 07:42:04,VALID,920.015,VALID,0,VALID,85.9693,VALID,297.505,VALID,21.2421,VALID,8,VALID,0,
2013-10-03, 07:43:04,VALID,920.034,VALID,0,VALID,84.8258,VALID,323.828,VALID,21.3006,VALID,15,VALID,0,
2013-10-03, 07:44:04,VALID,920.082,VALID,0,VALID,85.2908,VALID,342.308,VALID,21.4583,VALID,25,VALID,0,
2013-10-03, 07:45:04,VALID,920.096,VALID,0,VALID,83.3316,VALID,399.466,VALID,21.5932,VALID,29,VALID,0,
2013-10-03, 07:46:04,VALID,920.105,VALID,0,VALID,82.6073,VALID,193.716,VALID,21.751,VALID,42,VALID,0,
2013-10-03, 07:47:04,VALID,920.121,VALID,0,VALID,82.0584,VALID,148.161,VALID,21.7883,VALID,43,VALID,0,
2013-10-03, 07:48:04,VALID,920.095,VALID,0,VALID,82.0737,VALID,137.417,VALID,21.7477,VALID,45,VALID,0,
2013-10-03, 07:49:04,VALID,920.097,VALID,0,VALID,82.4549,VALID,160.839,VALID,21.6128,VALID,44,VALID,0,
2013-10-03, 07:50:04,VALID,920.061,VALID,0,VALID,83.1943,VALID,288.265,VALID,21.5152,VALID,30,VALID,0,
2013-10-03, 07:51:04,VALID,920.063,VALID,0,VALID,84.3379,VALID,339.299,VALID,21.5737,VALID,15,VALID,0,
2013-10-03, 07:52:04,VALID,920.07,VALID,0,VALID,82.9428,VALID,341.663,VALID,21.6323,VALID,60,VALID,0,
2013-10-03, 07:53:04,VALID,920.061,VALID,0,VALID,82.8513,VALID,345.316,VALID,21.8079,VALID,60,VALID,0,
2013-10-03, 07:54:04,VALID,920.069,VALID,0,VALID,82.2109,VALID,345.531,VALID,21.9818,VALID,51,VALID,0,
2013-10-03, 07:55:04,VALID,920.05,VALID,0,VALID,81.784,VALID,297.934,VALID,22.1574,VALID,8,VALID,0,
2013-10-03, 07:56:04,VALID,920.067,VALID,0,VALID,80.4347,VALID,315.555,VALID,22.294,VALID,1,VALID,0,
2013-10-03, 07:57:04,VALID,920.056,VALID,0,VALID,81.4028,VALID,364.44,VALID,22.4518,VALID,25,VALID,0,
2013-10-03, 07:58:04,VALID,920.087,VALID,0,VALID,79.9391,VALID,406.987,VALID,22.6257,VALID,8,VALID,0,
2013-10-03, 07:59:04,VALID,920.042,VALID,0,VALID,79.314,VALID,428.26,VALID,22.7818,VALID,16,VALID,0,
2013-10-03, 08:00:04,VALID,920.036,VALID,0,VALID,79.7943,VALID,433.525,VALID,22.9575,VALID,5,VALID,0,
2013-10-03, 08:01:04,VALID,920.066,VALID,0,VALID,78.3763,VALID,424.178,VALID,22.977,VALID,2,VALID,0,
2013-10-03, 08:02:04,VALID,920.038,VALID,0,VALID,77.431,VALID,432.666,VALID,22.8616,VALID,5,VALID,0,
2013-10-03, 08:03:04,VALID,920.028,VALID,0,VALID,78.727,VALID,422.029,VALID,22.8014,VALID,314,VALID,0,
2013-10-03, 08:04:04,VALID,920.01,VALID,0,VALID,79.1311,VALID,416.334,VALID,22.8794,VALID,348,VALID,0,
2013-10-03, 08:05:04,VALID,920.012,VALID,0,VALID,78.2849,VALID,411.715,VALID,22.9983,VALID,344,VALID,0,
2013-10-03, 08:06:04,VALID,920.043,VALID,0,VALID,77.5225,VALID,329.2,VALID,22.938,VALID,308,VALID,0,
2013-10-03, 08:07:04,VALID,920.044,VALID,0,VALID,78.5059,VALID,365.3,VALID,22.8989,VALID,347,VALID,0,
2013-10-03, 08:08:04,VALID,920.047,VALID,0,VALID,77.5606,VALID,380.986,VALID,22.9185,VALID,18,VALID,0,
2013-10-03, 08:09:04,VALID,920.052,VALID,0,VALID,78.7651,VALID,391.945,VALID,22.8777,VALID,18,VALID,0,
2013-10-03, 08:10:04,VALID,920.053,VALID,0,VALID,77.6064,VALID,436.748,VALID,22.9592,VALID,275,VALID,0,
2013-10-03, 08:11:04,VALID,920.068,VALID,0,VALID,78.2162,VALID,327.803,VALID,22.8226,VALID,276,VALID,0,
2013-10-03, 08:12:04,VALID,920.068,VALID,0,VALID,77.7055,VALID,417.839,VALID,22.7233,VALID,305,VALID,0,
2013-10-03, 08:13:04,VALID,920.063,VALID,0,VALID,78.8947,VALID,416.872,VALID,22.7038,VALID,9,VALID,0,
2013-10-03, 08:14:04,VALID,920.055,VALID,0,VALID,78.788,VALID,416.227,VALID,22.7428,VALID,55,VALID,0,
2013-10-03, 08:15:04,VALID,920.028,VALID,0,VALID,80.4118,VALID,415.797,VALID,22.8014,VALID,42,VALID,0,
2013-10-03, 08:16:04,VALID,920.047,VALID,0,VALID,78.4678,VALID,416.872,VALID,22.9965,VALID,329,VALID,0,
2013-10-03, 08:17:04,VALID,920.047,VALID,0,VALID,77.2862,VALID,420.632,VALID,22.9185,VALID,284,VALID,0,
2013-10-03, 08:18:04,VALID,920.02,VALID,0,VALID,78.2239,VALID,424.07,VALID,22.7233,VALID,251,VALID,0,
2013-10-03, 08:19:04,VALID,920.04,VALID,0,VALID,78.5059,VALID,428.368,VALID,22.6435,VALID,250,VALID,0,
2013-10-03, 08:20:04,VALID,920.095,VALID,0,VALID,78.7423,VALID,432.558,VALID,22.5655,VALID,254,VALID,0,
2013-10-03, 08:21:04,VALID,920.082,VALID,0,VALID,80.1831,VALID,436.533,VALID,22.5086,VALID,252,VALID,0,
2013-10-03, 08:22:04,VALID,920.082,VALID,0,VALID,80.854,VALID,439.864,VALID,22.5459,VALID,252,VALID,0,
2013-10-03, 08:23:04,VALID,920.116,VALID,0,VALID,80.3737,VALID,444.162,VALID,22.6843,VALID,252,VALID,0,
2013-10-03, 08:24:04,VALID,920.089,VALID,0,VALID,79.6418,VALID,443.302,VALID,22.7038,VALID,252,VALID,0,
2013-10-03, 08:25:04,VALID,920.099,VALID,0,VALID,79.6342,VALID,452.757,VALID,22.6843,VALID,243,VALID,0,
2013-10-03, 08:26:04,VALID,920.106,VALID,0,VALID,80.3584,VALID,457.162,VALID,22.624,VALID,239,VALID,0,
2013-10-03, 08:27:04,VALID,920.107,VALID,0,VALID,80.7625,VALID,460.17,VALID,22.6843,VALID,240,VALID,0,
2013-10-03, 08:28:04,VALID,920.105,VALID,0,VALID,79.7943,VALID,462.212,VALID,22.7038,VALID,243,VALID,0,
2013-10-03, 08:29:04,VALID,920.132,VALID,0,VALID,80.0687,VALID,465.757,VALID,22.7021,VALID,245,VALID,0,
2013-10-03, 08:30:04,VALID,920.129,VALID,0,VALID,79.1463,VALID,473.708,VALID,22.8794,VALID,241,VALID,0,
2013-10-03, 08:31:04,VALID,920.177,VALID,0,VALID,80.3279,VALID,481.874,VALID,23.1331,VALID,306,VALID,0,
2013-10-03, 08:32:04,VALID,920.189,VALID,0,VALID,78.4221,VALID,485.312,VALID,23.2875,VALID,311,VALID,0,
2013-10-03, 08:33:04,VALID,920.178,VALID,0,VALID,77.6292,VALID,486.386,VALID,23.3478,VALID,287,VALID,0,
2013-10-03, 08:34:04,VALID,920.203,VALID,0,VALID,75.9216,VALID,488.213,VALID,23.4827,VALID,290,VALID,0,
2013-10-03, 08:35:04,VALID,920.167,VALID,0,VALID,75.7234,VALID,491.866,VALID,23.4259,VALID,292,VALID,0,
2013-10-03, 08:36:04,VALID,920.221,VALID,0,VALID,77.6674,VALID,495.089,VALID,23.4827,VALID,18,VALID,0,
2013-10-03, 08:37:04,VALID,920.218,VALID,0,VALID,76.3866,VALID,497.13,VALID,23.7364,VALID,19,VALID,0,
2013-10-03, 08:38:04,VALID,920.236,VALID,0,VALID,74.5723,VALID,503.469,VALID,23.834,VALID,342,VALID,0,
2013-10-03, 08:39:04,VALID,920.283,VALID,0,VALID,74.2368,VALID,510.131,VALID,23.834,VALID,345,VALID,0,
2013-10-03, 08:40:04,VALID,920.29,VALID,0,VALID,73.5888,VALID,515.073,VALID,23.8731,VALID,345,VALID,0,
2013-10-03, 08:41:04,VALID,920.305,VALID,0,VALID,73.3525,VALID,518.618,VALID,24.0683,VALID,359,VALID,0,
2013-10-03, 08:42:04,VALID,920.31,VALID,0,VALID,72.0108,VALID,521.949,VALID,24.2245,VALID,17,VALID,0,
2013-10-03, 08:43:04,VALID,920.284,VALID,0,VALID,73.1695,VALID,524.85,VALID,24.3026,VALID,309,VALID,0,
2013-10-03, 08:44:04,VALID,920.3,VALID,0,VALID,71.2637,VALID,529.255,VALID,24.1854,VALID,309,VALID,0,
2013-10-03, 08:45:04,VALID,920.343,VALID,0,VALID,72.9561,VALID,532.263,VALID,24.1073,VALID,313,VALID,0,
2013-10-03, 08:46:04,VALID,920.325,VALID,0,VALID,72.1175,VALID,536.776,VALID,24.0488,VALID,319,VALID,0,
2013-10-03, 08:47:04,VALID,920.368,VALID,0,VALID,74.3969,VALID,541.503,VALID,23.8322,VALID,313,VALID,0,
2013-10-03, 08:48:04,VALID,920.387,VALID,0,VALID,75.3651,VALID,543.33,VALID,23.8536,VALID,267,VALID,0,
2013-10-03, 08:49:04,VALID,920.399,VALID,0,VALID,75.731,VALID,519.908,VALID,23.8536,VALID,267,VALID,0,
2013-10-03, 08:50:04,VALID,920.407,VALID,0,VALID,74.496,VALID,557.512,VALID,23.8944,VALID,267,VALID,0,
2013-10-03, 08:51:04,VALID,920.406,VALID,0,VALID,76.8898,VALID,561.273,VALID,23.8731,VALID,267,VALID,0,
2013-10-03, 08:52:04,VALID,920.42,VALID,0,VALID,72.8036,VALID,563.636,VALID,24.1073,VALID,290,VALID,0,
2013-10-03, 08:53:04,VALID,920.402,VALID,0,VALID,72.7274,VALID,566.537,VALID,24.1073,VALID,332,VALID,0,
2013-10-03, 08:54:04,VALID,920.43,VALID,0,VALID,74.5951,VALID,560.735,VALID,24.1677,VALID,334,VALID,0,
2013-10-03, 08:55:04,VALID,920.437,VALID,0,VALID,73.1391,VALID,458.666,VALID,24.244,VALID,346,VALID,0,
2013-10-03, 08:56:04,VALID,920.444,VALID,0,VALID,73.909,VALID,567.397,VALID,24.1854,VALID,2,VALID,0,
2013-10-03, 08:57:04,VALID,920.468,VALID,0,VALID,73.9853,VALID,577.281,VALID,24.244,VALID,337,VALID,0,
2013-10-03, 08:58:04,VALID,920.474,VALID,0,VALID,73.4745,VALID,580.934,VALID,24.363,VALID,49,VALID,0,
2013-10-03, 08:59:04,VALID,920.476,VALID,0,VALID,73.444,VALID,588.348,VALID,24.4783,VALID,339,VALID,0,
2013-10-03, 09:00:04,VALID,920.511,VALID,0,VALID,73.8252,VALID,590.711,VALID,24.5564,VALID,28,VALID,0,
2013-10-03, 09:01:04,VALID,920.532,VALID,0,VALID,73.2153,VALID,597.158,VALID,24.6735,VALID,54,VALID,0,
2013-10-03, 09:02:04,VALID,920.506,VALID,0,VALID,71.9803,VALID,598.877,VALID,24.7693,VALID,25,VALID,0,
2013-10-03, 09:03:04,VALID,920.535,VALID,0,VALID,70.9054,VALID,595.761,VALID,24.8083,VALID,7,VALID,0,
2013-10-03, 09:04:04,VALID,920.524,VALID,0,VALID,71.0197,VALID,600.166,VALID,24.693,VALID,360,VALID,0,
2013-10-03, 09:05:04,VALID,920.567,VALID,0,VALID,72.6893,VALID,606.29,VALID,24.535,VALID,16,VALID,0,
2013-10-03, 09:06:04,VALID,920.553,VALID,0,VALID,72.9561,VALID,607.902,VALID,24.4978,VALID,11,VALID,0,
2013-10-03, 09:07:04,VALID,920.548,VALID,0,VALID,73.2153,VALID,608.547,VALID,24.574,VALID,5,VALID,0,
2013-10-03, 09:08:04,VALID,920.577,VALID,0,VALID,71.1265,VALID,611.77,VALID,24.7497,VALID,356,VALID,0,
2013-10-03, 09:09:04,VALID,920.611,VALID,0,VALID,72.2166,VALID,595.331,VALID,24.904,VALID,352,VALID,0,
2013-10-03, 09:10:04,VALID,920.593,VALID,0,VALID,69.861,VALID,617.464,VALID,24.8297,VALID,17,VALID,0,
2013-10-03, 09:11:04,VALID,920.597,VALID,0,VALID,72.1251,VALID,618.324,VALID,24.654,VALID,22,VALID,0,
2013-10-03, 09:12:04,VALID,920.6,VALID,0,VALID,72.0641,VALID,629.605,VALID,24.654,VALID,20,VALID,0,
2013-10-03, 09:13:04,VALID,920.611,VALID,0,VALID,71.7516,VALID,657.003,VALID,24.6716,VALID,7,VALID,0,
2013-10-03, 09:14:04,VALID,920.593,VALID,0,VALID,70.2574,VALID,684.508,VALID,24.8688,VALID,3,VALID,0,
2013-10-03, 09:15:04,VALID,920.639,VALID,0,VALID,71.2408,VALID,696.219,VALID,25.0621,VALID,15,VALID,0,
2013-10-03, 09:16:04,VALID,920.639,VALID,0,VALID,68.5421,VALID,680.102,VALID,25.2965,VALID,323,VALID,0,
2013-10-03, 09:17:04,VALID,920.681,VALID,0,VALID,69.4798,VALID,647.333,VALID,25.396,VALID,3,VALID,0,
2013-10-03, 09:18:04,VALID,920.668,VALID,0,VALID,70.0668,VALID,652.92,VALID,25.5523,VALID,358,VALID,0,
2013-10-03, 09:19:04,VALID,920.679,VALID,0,VALID,67.2233,VALID,635.085,VALID,25.7085,VALID,7,VALID,0,
2013-10-03, 09:20:04,VALID,920.672,VALID,0,VALID,67.3681,VALID,624.985,VALID,25.8628,VALID,340,VALID,0,
2013-10-03, 09:21:04,VALID,920.673,VALID,0,VALID,66.2094,VALID,638.953,VALID,25.9409,VALID,35,VALID,0,
2013-10-03, 09:22:04,VALID,920.661,VALID,0,VALID,63.8614,VALID,647.655,VALID,25.9995,VALID,309,VALID,0,
2013-10-03, 09:23:04,VALID,920.679,VALID,0,VALID,67.0632,VALID,643.035,VALID,25.9409,VALID,355,VALID,0,
2013-10-03, 09:24:04,VALID,920.643,VALID,0,VALID,65.447,VALID,647.118,VALID,25.8823,VALID,20,VALID,0,
2013-10-03, 09:25:04,VALID,920.678,VALID,0,VALID,65.5842,VALID,649.267,VALID,25.8433,VALID,3,VALID,0,
2013-10-03, 09:26:04,VALID,920.663,VALID,0,VALID,64.9972,VALID,631.109,VALID,25.7261,VALID,19,VALID,0,
2013-10-03, 09:27:04,VALID,920.682,VALID,0,VALID,66.8497,VALID,626.597,VALID,25.6675,VALID,17,VALID,0,
2013-10-03, 09:28:04,VALID,920.704,VALID,0,VALID,67.7493,VALID,624.555,VALID,25.687,VALID,338,VALID,0,
2013-10-03, 09:29:04,VALID,920.725,VALID,0,VALID,67.3834,VALID,650.771,VALID,25.7456,VALID,313,VALID,0,
2013-10-03, 09:30:04,VALID,920.657,VALID,0,VALID,65.9959,VALID,640.134,VALID,25.8237,VALID,15,VALID,0,
2013-10-03, 09:31:04,VALID,920.716,VALID,0,VALID,67.391,VALID,674.838,VALID,25.8042,VALID,25,VALID,0,
2013-10-03, 09:32:04,VALID,920.741,VALID,0,VALID,66.865,VALID,669.896,VALID,25.8413,VALID,10,VALID,0,
2013-10-03, 09:33:04,VALID,920.75,VALID,0,VALID,66.7964,VALID,680.962,VALID,25.8042,VALID,66,VALID,0,
2013-10-03, 09:34:04,VALID,920.771,VALID,0,VALID,66.9488,VALID,683.755,VALID,25.8608,VALID,39,VALID,0,
2013-10-03, 09:35:04,VALID,920.749,VALID,0,VALID,67.9094,VALID,727.162,VALID,26.0386,VALID,38,VALID,0,
2013-10-03, 09:36:04,VALID,920.796,VALID,0,VALID,67.0556,VALID,729.633,VALID,26.2514,VALID,321,VALID,0,
2013-10-03, 09:37:04,VALID,920.837,VALID,0,VALID,63.4878,VALID,639.382,VALID,26.4878,VALID,315,VALID,0,
2013-10-03, 09:38:04,VALID,920.823,VALID,0,VALID,61.9479,VALID,723.186,VALID,26.5054,VALID,23,VALID,0,
2013-10-03, 09:39:04,VALID,920.856,VALID,0,VALID,64.2883,VALID,748.435,VALID,26.3882,VALID,300,VALID,0,
2013-10-03, 09:40:04,VALID,920.797,VALID,0,VALID,63.0304,VALID,785.073,VALID,26.3902,VALID,305,VALID,0,
2013-10-03, 09:41:04,VALID,920.824,VALID,0,VALID,64.2425,VALID,785.18,VALID,26.2144,VALID,11,VALID,0,
2013-10-03, 09:42:04,VALID,920.854,VALID,0,VALID,65.2031,VALID,810.429,VALID,26.0932,VALID,308,VALID,0,
2013-10-03, 09:43:04,VALID,920.82,VALID,0,VALID,65.1345,VALID,626.06,VALID,26.1342,VALID,11,VALID,0,
2013-10-03, 09:44:04,VALID,920.812,VALID,0,VALID,65.7748,VALID,738.873,VALID,26.2514,VALID,10,VALID,0,
2013-10-03, 09:45:04,VALID,920.806,VALID,0,VALID,64.3111,VALID,730.922,VALID,26.1518,VALID,334,VALID,0,
2013-10-03, 09:46:04,VALID,920.803,VALID,0,VALID,66.6973,VALID,730.6,VALID,26.1538,VALID,9,VALID,0,
2013-10-03, 09:47:04,VALID,920.838,VALID,0,VALID,64.9363,VALID,734.038,VALID,26.269,VALID,319,VALID,0,
2013-10-03, 09:48:04,VALID,920.805,VALID,0,VALID,61.2084,VALID,739.41,VALID,26.271,VALID,204,VALID,0,
2013-10-03, 09:49:04,VALID,920.824,VALID,0,VALID,62.4586,VALID,746.823,VALID,26.31,VALID,207,VALID,0,
2013-10-03, 09:50:04,VALID,920.812,VALID,0,VALID,60.8272,VALID,748.865,VALID,26.4077,VALID,355,VALID,0,
2013-10-03, 09:51:04,VALID,920.796,VALID,0,VALID,64.0901,VALID,760.576,VALID,26.2885,VALID,356,VALID,0,
2013-10-03, 09:52:04,VALID,920.779,VALID,0,VALID,64.6847,VALID,757.245,VALID,26.2104,VALID,26,VALID,0,
2013-10-03, 09:53:04,VALID,920.757,VALID,0,VALID,62.9161,VALID,748.435,VALID,26.1908,VALID,26,VALID,0,
2013-10-03, 09:54:04,VALID,920.765,VALID,0,VALID,62.3824,VALID,747.146,VALID,26.1518,VALID,7,VALID,0,
2013-10-03, 09:55:04,VALID,920.788,VALID,0,VALID,63.7089,VALID,745.534,VALID,25.8999,VALID,31,VALID,0,
2013-10-03, 09:56:04,VALID,920.777,VALID,0,VALID,64.3493,VALID,749.402,VALID,26.0366,VALID,23,VALID,0,
2013-10-03, 09:57:04,VALID,920.798,VALID,0,VALID,65.3174,VALID,754.989,VALID,26.1558,VALID,8,VALID,0,
2013-10-03, 09:58:04,VALID,920.779,VALID,0,VALID,62.2376,VALID,757.46,VALID,26.1928,VALID,358,VALID,0,
2013-10-03, 09:59:04,VALID,920.784,VALID,0,VALID,62.6569,VALID,761.221,VALID,26.3491,VALID,15,VALID,0,
2013-10-03, 10:00:04,VALID,920.744,VALID,0,VALID,58.7537,VALID,742.418,VALID,26.3882,VALID,16,VALID,0,
2013-10-03, 10:01:04,VALID,920.82,VALID,0,VALID,63.8156,VALID,796.784,VALID,26.1928,VALID,14,VALID,0,
2013-10-03, 10:02:04,VALID,920.788,VALID,0,VALID,62.108,VALID,822.462,VALID,26.2319,VALID,39,VALID,0,
2013-10-03, 10:03:04,VALID,920.703,VALID,0,VALID,60.3088,VALID,812.47,VALID,26.3491,VALID,54,VALID,0,
2013-10-03, 10:04:04,VALID,920.835,VALID,0,VALID,59.7447,VALID,810.966,VALID,26.4643,VALID,10,VALID,0,
2013-10-03, 10:05:04,VALID,920.812,VALID,0,VALID,59.6304,VALID,802.156,VALID,26.7377,VALID,40,VALID,0,
2013-10-03, 10:06:04,VALID,920.822,VALID,0,VALID,58.0981,VALID,789.263,VALID,27.0698,VALID,329,VALID,0,
2013-10-03, 10:07:04,VALID,920.803,VALID,0,VALID,58.4564,VALID,788.296,VALID,27.1284,VALID,11,VALID,0,
2013-10-03, 10:08:04,VALID,920.8,VALID,0,VALID,58.6088,VALID,796.891,VALID,26.9937,VALID,4,VALID,0,
2013-10-03, 10:09:04,VALID,920.761,VALID,0,VALID,56.4285,VALID,808.602,VALID,26.9331,VALID,28,VALID,0,
2013-10-03, 10:10:04,VALID,920.762,VALID,0,VALID,55.9864,VALID,791.626,VALID,27.0132,VALID,24,VALID,0,
2013-10-03, 10:11:04,VALID,920.724,VALID,0,VALID,56.9393,VALID,808.495,VALID,26.7788,VALID,34,VALID,0,
2013-10-03, 10:12:04,VALID,920.788,VALID,0,VALID,56.6801,VALID,754.022,VALID,26.6791,VALID,14,VALID,0,
2013-10-03, 10:13:04,VALID,920.753,VALID,0,VALID,58.281,VALID,746.823,VALID,26.7963,VALID,14,VALID,0,
2013-10-03, 10:14:04,VALID,920.748,VALID,0,VALID,55.9787,VALID,805.916,VALID,27.0112,VALID,25,VALID,0,
2013-10-03, 10:15:04,VALID,920.71,VALID,0,VALID,56.8097,VALID,765.948,VALID,27.0719,VALID,32,VALID,0,
2013-10-03, 10:16:04,VALID,920.735,VALID,0,VALID,58.2658,VALID,786.147,VALID,27.0698,VALID,60,VALID,0,
2013-10-03, 10:17:04,VALID,920.753,VALID,0,VALID,55.9101,VALID,754.774,VALID,27.0893,VALID,263,VALID,0,
2013-10-03, 10:18:04,VALID,920.742,VALID,0,VALID,56.8631,VALID,837.934,VALID,26.9721,VALID,65,VALID,0,
2013-10-03, 10:19:04,VALID,920.762,VALID,0,VALID,57.2137,VALID,842.983,VALID,26.9331,VALID,349,VALID,0,
2013-10-03, 10:20:04,VALID,920.764,VALID,0,VALID,56.8859,VALID,843.628,VALID,27.1479,VALID,307,VALID,0,
2013-10-03, 10:21:04,VALID,920.769,VALID,0,VALID,56.0321,VALID,326.514,VALID,27.2847,VALID,96,VALID,0,
2013-10-03, 10:22:04,VALID,920.826,VALID,0,VALID,58.22,VALID,879.406,VALID,27.187,VALID,251,VALID,0,
2013-10-03, 10:23:04,VALID,920.776,VALID,0,VALID,56.2989,VALID,906.374,VALID,27.2261,VALID,317,VALID,0,
2013-10-03, 10:24:04,VALID,920.761,VALID,0,VALID,56.8173,VALID,928.399,VALID,27.2847,VALID,259,VALID,0,
2013-10-03, 10:25:04,VALID,920.712,VALID,0,VALID,58.3496,VALID,941.185,VALID,27.3238,VALID,350,VALID,0,
2013-10-03, 10:26:04,VALID,920.746,VALID,0,VALID,57.3662,VALID,937.854,VALID,27.5582,VALID,227,VALID,0,
2013-10-03, 10:27:04,VALID,920.729,VALID,0,VALID,58.3725,VALID,571.265,VALID,27.6385,VALID,305,VALID,0,
2013-10-03, 10:28:04,VALID,920.709,VALID,0,VALID,57.7016,VALID,981.582,VALID,27.5973,VALID,56,VALID,0,